#timestamp,LO_Frequency,Hit,StdDev 
1527447615.7,286047077.6,N
1527447635.5,286047075.0,N
1527447655.4,286047075.2,N
1527447675.2,286047073.3,N
1527447695.0,286047073.3,N
1527447696.0,286047073.3,N
1527447715.8,286047074.1,N
1527447735.6,286047073.9,N
1527447755.5,286047076.2,N
1527447775.3,286047074.9,N
1527447795.1,286047075.2,N
1527447815.9,286047077.5,N
1527447835.7,286047077.4,N
1527447855.6,286047079.1,N
1527447875.4,286047076.5,N
1527447895.2,286047077.4,N
1527447915.1,286047076.9,N
1527447916.0,286047076.9,N
1527447935.8,286047076.9,N
1527447955.7,286047077.0,N
1527447975.5,286047079.1,N
1527447995.3,286047077.1,N
1527448015.2,286047077.2,Y
1527448035.0,286047001.9,P
1527448035.9,286047001.9,N
1527448055.7,286046999.7,N
1527448075.6,286046998.1,N
1527448095.4,286046998.2,N
1527448115.3,286046998.7,N
1527448135.1,286046999.6,N
1527448136.0,286046999.6,N
1527448155.8,286046999.3,N
1527448175.7,286047001.0,N
1527448195.5,286047000.3,N
1527448215.3,286047002.7,N
1527448235.2,286047000.7,N
1527448255.0,286047000.9,N
1527448255.9,286047000.9,N
1527448275.8,286047000.0,N
1527448295.6,286047002.8,N
1527448315.4,286047000.3,N
1527448335.3,286047001.9,N
1527448355.1,286047000.5,N
1527448375.9,286047002.2,N
1527448395.7,286047001.6,N
1527448415.5,286047002.3,N
1527448435.4,286047000.1,N
1527448455.2,286047000.8,N
1527448475.0,286047001.1,N
1527448475.9,286047001.1,N
1527448495.8,286047000.7,N
1527448515.6,286047002.6,N
1527448535.5,286046999.8,N
1527448555.3,286047002.6,N
1527448575.1,286047000.3,N
1527448595.9,286047001.1,N
1527448615.7,286046998.7,N
1527448635.6,286047001.2,N
1527448655.4,286047002.8,N
1527448675.2,286046999.8,N
1527448695.1,286047002.3,N
1527448696.0,286047002.3,N
1527448715.8,286047002.7,N
1527448735.6,286046999.8,N
1527448755.5,286046998.2,N
1527448775.3,286046998.1,N
1527448795.2,286046999.1,N
1527448815.9,286046998.6,N
1527448835.7,286046996.5,N
1527448855.6,286046996.9,N
1527448875.4,286046999.1,N
1527448895.2,286046999.0,N
1527448915.1,286046999.3,N
1527448916.0,286046999.3,N
1527448935.8,286047001.2,N
1527448955.7,286047000.1,N
1527448975.5,286047002.5,N
1527448995.3,286047000.1,N
1527449015.2,286047002.8,N
1527449035.0,286047001.3,N
1527449035.9,286047001.3,N
1527449055.7,286047002.1,N
1527449075.6,286047001.8,N
1527449095.4,286047000.1,N
1527449115.3,286047000.4,N
1527449135.1,286047002.0,N
1527449155.8,286046999.9,N
1527449175.7,286047002.8,N
1527449195.5,286047002.2,N
1527449215.4,286047001.4,N
1527449235.2,286047004.3,N
1527449255.0,286047001.4,N
1527449255.9,286047001.4,N
1527449275.8,286047003.9,N
1527449295.6,286047002.6,N
1527449315.5,286047002.3,N
1527449335.3,286046999.7,N
1527449355.1,286047002.6,N
1527449375.9,286047002.8,N
1527449395.7,286047002.8,N
1527449415.5,286047001.6,N
1527449435.4,286046999.7,N
1527449455.2,286047000.0,N
1527449475.1,286046998.2,N
1527449476.0,286046998.2,N
1527449495.8,286046998.8,N
1527449515.6,286047000.6,N
1527449535.5,286047000.1,N
1527449555.3,286047002.1,N
1527449575.1,286047001.8,N
1527449595.9,286047001.4,N
1527449615.7,286047001.3,N
1527449635.6,286047001.5,N
1527449655.4,286047004.3,N
1527449675.2,286047001.9,N
1527449695.1,286047003.9,N
1527449696.0,286047003.9,N
1527449715.8,286047001.5,N
1527449735.6,286047002.4,N
1527449755.5,286047002.5,N
1527449775.3,286047004.0,N
1527449795.2,286047004.3,N
1527449815.9,286047001.6,N
1527449835.7,286047002.8,N
1527449855.6,286047002.4,N
1527449875.4,286047002.3,N
1527449895.2,286047001.9,N
1527449915.1,286047000.5,N
1527449916.0,286047000.5,N
1527449935.8,286046999.0,N
1527449955.7,286047000.8,N
1527449975.5,286047001.1,N
1527449995.3,286047000.3,N
1527450015.2,286047000.9,N
1527450035.0,286047000.5,N
1527450035.9,286047000.5,N
1527450055.7,286046998.2,N
1527450075.6,286047001.1,N
1527450095.4,286047000.4,N
1527450115.3,286047002.4,N
1527450135.1,286047002.0,N
1527450136.0,286047002.0,N
1527450155.8,286047002.7,N
1527450175.7,286047000.1,N
1527450195.5,286046999.9,N
1527450215.4,286047000.4,N
1527450235.2,286047000.7,N
1527450255.0,286047000.7,N
1527450255.9,286047000.7,N
1527450275.8,286047000.3,N
1527450295.6,286047001.8,N
1527450315.4,286047002.3,N
1527450335.3,286047002.6,N
1527450355.1,286047002.0,N
1527450375.9,286047001.7,N
1527450395.7,286046999.8,N
1527450415.5,286047002.4,N
1527450435.4,286047000.7,N
1527450455.2,286047000.6,N
1527450475.0,286047002.3,N
1527450475.9,286047002.3,N
1527450495.8,286047000.1,N
1527450515.6,286047002.8,N
1527450535.5,286047000.2,N
1527450555.3,286047001.9,N
1527450575.1,286047002.1,N
1527450595.9,286047001.7,N
1527450615.7,286047004.0,Y
1527450635.6,286047001.6,P
1527450655.4,286047001.3,P
1527450675.2,286047003.4,P
1527450695.1,286047001.9,N
1527450696.0,286047001.9,N
1527450715.8,286047002.3,Y
1527450735.6,286046999.3,P
1527450755.5,286047000.8,N
1527450775.3,286046998.6,N
1527450795.2,286047000.7,N
1527450815.9,286047002.5,N
1527450835.7,286047002.6,N
1527450855.6,286047002.4,N
1527450875.4,286047000.4,N
1527450895.2,286047001.0,N
1527450915.1,286047000.5,N
1527450916.0,286047000.5,N
1527450935.8,286046999.8,N
1527450955.7,286047002.8,N
1527450975.5,286047002.2,N
1527450995.3,286047002.7,N
1527451015.2,286047001.4,N
1527451035.0,286047001.4,N
1527451035.9,286047001.4,N
1527451055.8,286047001.7,N
1527451075.6,286047005.6,Y
1527451095.4,286047003.2,P
1527451115.3,286047001.6,N
1527451135.1,286047001.4,N
1527451155.8,286047001.8,N
1527451175.7,286047002.0,N
1527451195.5,286046999.8,N
